Skip Page Navigation
NASA JPL Caltech
NASA Logo - Jet Propulsion Laboratory + View the NASA Portal
+ Near-Earth Object (NEO) Program
Search JPL
JPL Home Earth Solar System Stars & Galaxies Technology
JPL Solar System Dynamics
BODIES ORBITS EPHEMERIDES TOOLS PHYSICAL DATA DISCOVERY FAQ SITE MAP
JPL Small-Body Database Browser
Search: [ help ]  
254422 Henrykent (2004 VR122)
Classification: Outer Main-belt Asteroid          SPK-ID: 2254422
Ephemeris | Orbit Diagram | Orbital Elements | Physical Parameters | Discovery Circumstances | Close-Approach Data ]

[ hide orbit diagram ]
Orbit Diagram
Note: Make sure you have Java enabled on your browser to see the applet. This applet is provided as a 3D orbit visualization tool. The applet was implemented using 2-body methods, and hence should not be used for determining accurate long-term trajectories (over several years or decades) or planetary encounter circumstances. For accurate long-term ephemerides, please instead use our Horizons system.
Orbit Viewer

Additional Notes: the orbits shown in the applet are color coded. The planets are white lines, and the asteroid/comet is a blue line. The bright white line indicates the portion of the orbit that is above the ecliptic plane, and the darker portion is below the ecliptic plane. Likewise for the asteroid/comet orbit, the light blue indicates the portion above the ecliptic plane, and the dark blue the portion below the ecliptic plane.

Orbit Viewer applet originally written and kindly provided by Osamu Ajiki (AstroArts), and further modified by Ron Baalke (JPL).


Orbital Elements at Epoch 2456400.5 (2013-Apr-18.0) TDB
Reference: JPL 1 (heliocentric ecliptic J2000)
 Element Value Uncertainty (1-sigma)   Units 
e .1203097594117152 2.0325e-07  
a 3.215886487567491 9.8284e-08 AU
q 2.82898395795286 6.6569e-07 AU
i 4.186530489541488 1.6371e-05 deg
node 231.2192877468528 0.00017644 deg
peri 349.6365877445717 0.00018637 deg
M 349.3274181095716 6.7863e-05 deg
tp 2456462.947705846467
(2013-Jun-19.44770585)
0.0003981 JED
period 2106.441940247846
5.77
9.6566e-05
2.644e-07
d
yr
n .1709043069839571 7.8348e-09 deg/d
Q 3.602789017182122 1.1011e-07 AU
  Orbit Determination Parameters
   # obs. used (total)      84  
   data-arc span      4439 days (12.15 yr)  
   first obs. used      2001-02-22  
   last obs. used      2013-04-19  
   planetary ephem.      DE405  
   SB-pert. ephem.      SB405-CPV-2  
   condition code      0  
   fit RMS      .58204  
   data source      ORB  
   producer      Otto Matic  
   solution date      2013-Apr-29 22:03:20  

Additional Information
 Earth MOID = 1.82112 AU 
 T_jup = 3.175 
[ show covariance matrix ]

Ephemeris | Orbit Diagram | Orbital Elements | Physical Parameters | Discovery Circumstances | Close-Approach Data ]

Physical Parameter Table
Parameter Symbol Value Units Sigma Reference Notes
absolute magnitude H 15.664 mag .35779 1 autocmod 2.5c

254422 Henrykent           Discovered 2004 Nov. 9 by P. A. Wiegert and A. Papadimos at Mauna Kea.
Henry Kent is an inventor with a passion and curiosity for science and engineering. He worked at the Ontario Science Center in Toronto, Canada, for twenty years.
NOTE: some special characters may not display properly (any characters within {} are an attempt to place the proper accent above a character)
Reference: 20121228/MPCPages.arcLast Updated: 2013-01-02

[ show close-approach data ]
Alternate Designations
 2004 VR122 = 2003 SL287 
Ephemeris | Orbit Diagram | Orbital Elements | Physical Parameters | Discovery Circumstances | Close-Approach Data ]
ABOUT SSD CREDITS/AWARDS PRIVACY/COPYRIGHT GLOSSARY LINKS
FirstGov 2013-May-19 14:10 UT
(server date/time)  
NASA Home Page
Site Manager:   Donald K. Yeomans
Webmaster  Alan B. Chamberlin